,,PA_Meas_PMT16A,,PR_Meas_QMR101_102,,RH_Meas_QMH101,,SR_Meas_QMS101,,TA_Meas_QMH101,,GenWind,,GenWind,
time,status,PA,status,PR,status,RH,status,SR,status,TA,status,DirAvg,status,SpdAvg,
2011-01-15, 00:00:04,VALID,917.972,VALID,0,VALID,94.1873,VALID,0,VALID,21.2226,VALID,28,VALID,0.0988281,
2011-01-15, 00:01:04,VALID,917.952,VALID,0,VALID,94.0196,VALID,0,VALID,21.1836,VALID,28,VALID,0.491797,
2011-01-15, 00:02:04,VALID,917.893,VALID,0,VALID,93.9891,VALID,0,VALID,21.164,VALID,28,VALID,0.251953,
2011-01-15, 00:03:04,VALID,917.892,VALID,0,VALID,94.0882,VALID,0,VALID,21.1836,VALID,28,VALID,0.267188,
2011-01-15, 00:04:04,VALID,917.899,VALID,0,VALID,94.0043,VALID,0,VALID,21.1445,VALID,28,VALID,0.207031,
2011-01-15, 00:05:04,VALID,917.913,VALID,0,VALID,94.012,VALID,0,VALID,21.1657,VALID,28,VALID,0.415234,
2011-01-15, 00:06:04,VALID,917.906,VALID,0,VALID,94.012,VALID,0,VALID,21.1055,VALID,28,VALID,0.396094,
2011-01-15, 00:07:04,VALID,917.902,VALID,0,VALID,94.1111,VALID,0,VALID,21.1055,VALID,28,VALID,0.167187,
2011-01-15, 00:08:04,VALID,917.891,VALID,0,VALID,94.1568,VALID,0,VALID,21.1266,VALID,28,VALID,0,
2011-01-15, 00:09:04,VALID,917.906,VALID,0,VALID,94.2483,VALID,0,VALID,21.1055,VALID,28,VALID,0.108984,
2011-01-15, 00:10:04,VALID,917.901,VALID,0,VALID,94.2635,VALID,0,VALID,21.125,VALID,28,VALID,0,
2011-01-15, 00:11:04,VALID,917.867,VALID,0,VALID,94.2254,VALID,0,VALID,21.1461,VALID,28,VALID,0.1625,
2011-01-15, 00:12:04,VALID,917.893,VALID,0,VALID,94.1949,VALID,0,VALID,21.164,VALID,28,VALID,0.666406,
2011-01-15, 00:13:04,VALID,917.89,VALID,0,VALID,94.0577,VALID,0,VALID,21.164,VALID,28,VALID,0.361328,
2011-01-15, 00:14:04,VALID,917.881,VALID,0,VALID,94.2026,VALID,0,VALID,21.1836,VALID,28,VALID,0.311719,
2011-01-15, 00:15:04,VALID,917.833,VALID,0,VALID,94.3931,VALID,0,VALID,21.2031,VALID,28,VALID,0.259375,
2011-01-15, 00:16:04,VALID,917.818,VALID,0,VALID,94.4846,VALID,0,VALID,21.2226,VALID,28,VALID,0,
2011-01-15, 00:17:04,VALID,917.806,VALID,0,VALID,94.3474,VALID,0,VALID,21.2632,VALID,28,VALID,0,
2011-01-15, 00:18:04,VALID,917.811,VALID,0,VALID,94.233,VALID,0,VALID,21.2226,VALID,28,VALID,0.357031,
2011-01-15, 00:19:04,VALID,917.754,VALID,0,VALID,94.1034,VALID,0,VALID,21.2031,VALID,28,VALID,0.423828,
2011-01-15, 00:20:04,VALID,917.768,VALID,0,VALID,94.1797,VALID,0,VALID,21.1836,VALID,28,VALID,0.34375,
2011-01-15, 00:21:04,VALID,917.733,VALID,0,VALID,94.3855,VALID,0,VALID,21.1657,VALID,28,VALID,0.349609,
2011-01-15, 00:22:04,VALID,917.71,VALID,0,VALID,94.4236,VALID,0,VALID,21.1055,VALID,28,VALID,0.392188,
2011-01-15, 00:23:04,VALID,917.698,VALID,0,VALID,94.6676,VALID,0,VALID,21.125,VALID,28,VALID,0.236719,
2011-01-15, 00:24:04,VALID,917.728,VALID,0,VALID,94.7209,VALID,0,VALID,21.1055,VALID,28,VALID,0.238281,
2011-01-15, 00:25:04,VALID,917.697,VALID,0,VALID,94.7819,VALID,0,VALID,21.086,VALID,28,VALID,0.096875,
2011-01-15, 00:26:04,VALID,917.702,VALID,0,VALID,94.9039,VALID,0,VALID,21.086,VALID,28,VALID,0.05625,
2011-01-15, 00:27:04,VALID,917.695,VALID,0,VALID,95.0335,VALID,0,VALID,21.1055,VALID,28,VALID,0.392578,
2011-01-15, 00:28:04,VALID,917.685,VALID,0,VALID,95.1555,VALID,0,VALID,21.125,VALID,28,VALID,0.550781,
2011-01-15, 00:29:04,VALID,917.704,VALID,0,VALID,94.8429,VALID,0,VALID,21.047,VALID,28,VALID,0.939453,
2011-01-15, 00:30:04,VALID,917.658,VALID,0,VALID,94.8658,VALID,0,VALID,21.008,VALID,28,VALID,0.971875,
2011-01-15, 00:31:04,VALID,917.674,VALID,0,VALID,95.0488,VALID,0.107441,VALID,21.0064,VALID,28,VALID,0.644141,
2011-01-15, 00:32:04,VALID,917.622,VALID,0,VALID,95.2851,VALID,0,VALID,21.0275,VALID,28,VALID,0.880078,
2011-01-15, 00:33:04,VALID,917.63,VALID,0,VALID,95.1097,VALID,0.107441,VALID,20.9479,VALID,28,VALID,0.892187,
2011-01-15, 00:34:04,VALID,917.615,VALID,0,VALID,95.186,VALID,0.107441,VALID,20.9479,VALID,28,VALID,0.458203,
2011-01-15, 00:35:04,VALID,917.593,VALID,0,VALID,95.3689,VALID,0,VALID,20.9284,VALID,28,VALID,0.441797,
2011-01-15, 00:36:04,VALID,917.566,VALID,0,VALID,95.468,VALID,0.107441,VALID,20.9674,VALID,28,VALID,0.426953,
2011-01-15, 00:37:04,VALID,917.547,VALID,0,VALID,95.4985,VALID,0.214882,VALID,20.9674,VALID,28,VALID,0.422266,
2011-01-15, 00:38:04,VALID,917.517,VALID,0,VALID,95.529,VALID,0.107441,VALID,21.0064,VALID,28,VALID,0.440234,
2011-01-15, 00:39:04,VALID,917.495,VALID,0,VALID,95.4223,VALID,0.214882,VALID,20.9853,VALID,28,VALID,0.111328,
2011-01-15, 00:40:04,VALID,917.492,VALID,0,VALID,95.3461,VALID,0.107441,VALID,21.0064,VALID,28,VALID,0.441797,
2011-01-15, 00:41:04,VALID,917.466,VALID,0,VALID,95.2393,VALID,0.107441,VALID,21.0064,VALID,28,VALID,0.554297,
2011-01-15, 00:42:04,VALID,917.463,VALID,0,VALID,95.2165,VALID,0.107441,VALID,20.9869,VALID,28,VALID,1.06758,
2011-01-15, 00:43:04,VALID,917.441,VALID,0,VALID,95.2165,VALID,0.107441,VALID,20.9869,VALID,27,VALID,0.932031,
2011-01-15, 00:44:04,VALID,917.469,VALID,0,VALID,95.1936,VALID,0,VALID,21.0064,VALID,27,VALID,0.564062,
2011-01-15, 00:45:04,VALID,917.41,VALID,0,VALID,95.0945,VALID,0,VALID,20.9869,VALID,27,VALID,0.417969,
2011-01-15, 00:46:04,VALID,917.447,VALID,0,VALID,94.9649,VALID,0,VALID,20.9885,VALID,27,VALID,0.571875,
2011-01-15, 00:47:04,VALID,917.416,VALID,0,VALID,94.8353,VALID,0,VALID,20.969,VALID,27,VALID,0.870313,
2011-01-15, 00:48:04,VALID,917.421,VALID,0,VALID,94.8048,VALID,0,VALID,20.9495,VALID,27,VALID,0.905078,
2011-01-15, 00:49:04,VALID,917.419,VALID,0,VALID,94.8353,VALID,0,VALID,20.9495,VALID,27,VALID,1.12695,
2011-01-15, 00:50:04,VALID,917.364,VALID,0,VALID,94.8048,VALID,0,VALID,20.9495,VALID,27,VALID,0.698828,
2011-01-15, 00:51:04,VALID,917.387,VALID,0,VALID,94.881,VALID,0,VALID,20.9706,VALID,27,VALID,0.857031,
2011-01-15, 00:52:04,VALID,917.398,VALID,0,VALID,94.8505,VALID,0,VALID,20.9495,VALID,27,VALID,0.929297,
2011-01-15, 00:53:04,VALID,917.347,VALID,0,VALID,94.8277,VALID,0,VALID,20.93,VALID,27,VALID,0.824609,
2011-01-15, 00:54:04,VALID,917.381,VALID,0,VALID,94.9268,VALID,0,VALID,20.9495,VALID,27,VALID,0.780469,
2011-01-15, 00:55:04,VALID,917.341,VALID,0,VALID,94.8505,VALID,0,VALID,20.969,VALID,27,VALID,0.673828,
2011-01-15, 00:56:04,VALID,917.317,VALID,0,VALID,94.8734,VALID,0,VALID,20.9495,VALID,27,VALID,0.676172,
2011-01-15, 00:57:04,VALID,917.307,VALID,0,VALID,94.9649,VALID,0,VALID,20.9495,VALID,27,VALID,0.694922,
2011-01-15, 00:58:04,VALID,917.278,VALID,0,VALID,95.0183,VALID,0,VALID,20.9495,VALID,27,VALID,0.727734,
2011-01-15, 00:59:04,VALID,917.268,VALID,0,VALID,94.8505,VALID,0,VALID,20.93,VALID,27,VALID,0.715234,
2011-01-15, 01:00:04,VALID,917.244,VALID,0,VALID,94.9039,VALID,0,VALID,20.9511,VALID,27,VALID,0.677734,
2011-01-15, 01:01:04,VALID,917.237,VALID,0,VALID,94.7972,VALID,0,VALID,20.93,VALID,27,VALID,0.423438,
2011-01-15, 01:02:04,VALID,917.239,VALID,0,VALID,94.7286,VALID,0,VALID,20.93,VALID,27,VALID,0.394141,
2011-01-15, 01:03:04,VALID,917.237,VALID,0,VALID,94.8734,VALID,0,VALID,20.9495,VALID,27,VALID,0.167578,
2011-01-15, 01:04:04,VALID,917.22,VALID,0,VALID,94.82,VALID,0,VALID,20.9495,VALID,27,VALID,0.288281,
2011-01-15, 01:05:04,VALID,917.21,VALID,0,VALID,94.7667,VALID,0,VALID,20.9105,VALID,27,VALID,0.455859,
2011-01-15, 01:06:04,VALID,917.186,VALID,0,VALID,94.7362,VALID,0,VALID,20.9495,VALID,27,VALID,0.542578,
2011-01-15, 01:07:04,VALID,917.194,VALID,0,VALID,94.7209,VALID,0,VALID,20.9495,VALID,27,VALID,0.624609,
2011-01-15, 01:08:04,VALID,917.198,VALID,0,VALID,94.6676,VALID,0,VALID,20.969,VALID,27,VALID,0.634375,
2011-01-15, 01:09:04,VALID,917.172,VALID,0,VALID,94.6523,VALID,0,VALID,20.9511,VALID,27,VALID,0.379297,
2011-01-15, 01:10:04,VALID,917.139,VALID,0,VALID,94.6905,VALID,0,VALID,20.9316,VALID,27,VALID,0.604297,
2011-01-15, 01:11:04,VALID,917.152,VALID,0,VALID,94.7667,VALID,0,VALID,20.9105,VALID,27,VALID,0.436328,
2011-01-15, 01:12:04,VALID,917.118,VALID,0,VALID,94.8124,VALID,0,VALID,20.9105,VALID,27,VALID,0.532031,
2011-01-15, 01:13:04,VALID,917.1,VALID,0,VALID,94.8582,VALID,0,VALID,20.8714,VALID,27,VALID,0.525391,
2011-01-15, 01:14:04,VALID,917.095,VALID,0,VALID,94.9344,VALID,0,VALID,20.8925,VALID,27,VALID,0.535937,
2011-01-15, 01:15:04,VALID,917.098,VALID,0,VALID,95.064,VALID,0,VALID,20.912,VALID,27,VALID,0.408984,
2011-01-15, 01:16:04,VALID,917.095,VALID,0,VALID,95.003,VALID,0,VALID,20.8714,VALID,27,VALID,0.678906,
2011-01-15, 01:17:04,VALID,917.085,VALID,0,VALID,95.0183,VALID,0,VALID,20.873,VALID,27,VALID,0.577344,
2011-01-15, 01:18:04,VALID,917.076,VALID,0,VALID,95.064,VALID,0,VALID,20.8324,VALID,27,VALID,0.482422,
2011-01-15, 01:19:04,VALID,917.071,VALID,0,VALID,95.0869,VALID,0,VALID,20.8714,VALID,27,VALID,0.710547,
2011-01-15, 01:20:04,VALID,917.091,VALID,0,VALID,95.0869,VALID,0,VALID,20.834,VALID,27,VALID,0.477344,
2011-01-15, 01:21:04,VALID,917.098,VALID,0,VALID,95.1479,VALID,0,VALID,20.8129,VALID,27,VALID,0.699609,
2011-01-15, 01:22:04,VALID,917.135,VALID,0,VALID,95.125,VALID,0,VALID,20.795,VALID,27,VALID,0.696484,
2011-01-15, 01:23:04,VALID,917.146,VALID,0,VALID,95.1555,VALID,0,VALID,20.7755,VALID,27,VALID,0.195703,
2011-01-15, 01:24:04,VALID,917.154,VALID,0,VALID,95.1555,VALID,0,VALID,20.7544,VALID,27,VALID,0.0140625,
2011-01-15, 01:25:04,VALID,917.155,VALID,0,VALID,95.2317,VALID,0,VALID,20.7934,VALID,27,VALID,0,
2011-01-15, 01:26:04,VALID,917.146,VALID,0,VALID,95.2088,VALID,0,VALID,20.7739,VALID,27,VALID,0.164844,
2011-01-15, 01:27:04,VALID,917.142,VALID,0,VALID,95.2393,VALID,0,VALID,20.7739,VALID,27,VALID,0,
2011-01-15, 01:28:04,VALID,917.125,VALID,0,VALID,95.2622,VALID,0,VALID,20.7755,VALID,27,VALID,0.408594,
2011-01-15, 01:29:04,VALID,917.086,VALID,0,VALID,95.2851,VALID,0,VALID,20.795,VALID,27,VALID,0.260156,
2011-01-15, 01:30:04,VALID,917.078,VALID,0,VALID,95.3232,VALID,0,VALID,20.7544,VALID,27,VALID,0.132422,
2011-01-15, 01:31:04,VALID,917.066,VALID,0,VALID,95.3461,VALID,0,VALID,20.7544,VALID,27,VALID,0,
2011-01-15, 01:32:04,VALID,916.998,VALID,0,VALID,95.3613,VALID,0,VALID,20.756,VALID,27,VALID,0,
2011-01-15, 01:33:04,VALID,916.99,VALID,0,VALID,95.3613,VALID,0,VALID,20.756,VALID,27,VALID,0.288672,
2011-01-15, 01:34:04,VALID,916.967,VALID,0,VALID,95.2622,VALID,0,VALID,20.7349,VALID,27,VALID,0.686328,
2011-01-15, 01:35:04,VALID,916.904,VALID,0,VALID,95.1479,VALID,0,VALID,20.717,VALID,27,VALID,0.610937,
2011-01-15, 01:36:04,VALID,916.893,VALID,0,VALID,95.0335,VALID,0,VALID,20.6569,VALID,27,VALID,0.658984,
2011-01-15, 01:37:04,VALID,916.886,VALID,0,VALID,95.1021,VALID,0,VALID,20.6374,VALID,27,VALID,0.81875,
2011-01-15, 01:38:04,VALID,916.852,VALID,0,VALID,95.1326,VALID,0,VALID,20.5984,VALID,27,VALID,0.451562,
2011-01-15, 01:39:04,VALID,916.811,VALID,0,VALID,95.1174,VALID,0,VALID,20.5789,VALID,27,VALID,0.492578,
2011-01-15, 01:40:04,VALID,916.795,VALID,0,VALID,95.2698,VALID,0,VALID,20.5399,VALID,27,VALID,0.769922,
2011-01-15, 01:41:04,VALID,916.779,VALID,0,VALID,95.3308,VALID,0,VALID,20.5204,VALID,27,VALID,0.932813,
2011-01-15, 01:42:04,VALID,916.767,VALID,0,VALID,95.3613,VALID,0,VALID,20.5024,VALID,27,VALID,0.698438,
2011-01-15, 01:43:04,VALID,916.742,VALID,0,VALID,95.3994,VALID,0,VALID,20.4228,VALID,27,VALID,0.613281,
2011-01-15, 01:44:04,VALID,916.728,VALID,0,VALID,95.4833,VALID,0,VALID,20.4033,VALID,27,VALID,0.766406,
2011-01-15, 01:45:04,VALID,916.743,VALID,0,VALID,95.6129,VALID,0,VALID,20.4033,VALID,27,VALID,0.604688,
2011-01-15, 01:46:04,VALID,916.714,VALID,0,VALID,95.7044,VALID,0,VALID,20.4244,VALID,27,VALID,0.478906,
2011-01-15, 01:47:04,VALID,916.683,VALID,0,VALID,95.7196,VALID,0,VALID,20.4439,VALID,27,VALID,0.302734,
2011-01-15, 01:48:04,VALID,916.686,VALID,0,VALID,95.7577,VALID,0,VALID,20.4228,VALID,27,VALID,0.104297,
2011-01-15, 01:49:04,VALID,916.652,VALID,0,VALID,95.7958,VALID,0,VALID,20.4439,VALID,27,VALID,0.160156,
2011-01-15, 01:50:04,VALID,916.642,VALID,0,VALID,95.834,VALID,0,VALID,20.4228,VALID,27,VALID,0,
2011-01-15, 01:51:04,VALID,916.609,VALID,0,VALID,95.8111,VALID,0,VALID,20.4618,VALID,27,VALID,0,
2011-01-15, 01:52:04,VALID,916.594,VALID,0,VALID,95.7958,VALID,0,VALID,20.4423,VALID,27,VALID,0,
2011-01-15, 01:53:04,VALID,916.592,VALID,0,VALID,95.7501,VALID,0,VALID,20.4618,VALID,27,VALID,0,
2011-01-15, 01:54:04,VALID,916.557,VALID,0,VALID,95.6357,VALID,0,VALID,20.4634,VALID,27,VALID,0,
2011-01-15, 01:55:04,VALID,916.554,VALID,0,VALID,95.5748,VALID,0,VALID,20.4423,VALID,27,VALID,0,
2011-01-15, 01:56:04,VALID,916.537,VALID,0,VALID,95.4833,VALID,0,VALID,20.4228,VALID,27,VALID,0.0105469,
2011-01-15, 01:57:04,VALID,916.504,VALID,0,VALID,95.4147,VALID,0,VALID,20.4244,VALID,27,VALID,0.502344,
2011-01-15, 01:58:04,VALID,916.524,VALID,0,VALID,95.3003,VALID,0,VALID,20.3659,VALID,27,VALID,0.550781,
2011-01-15, 01:59:04,VALID,916.499,VALID,0,VALID,95.4528,VALID,0,VALID,20.3464,VALID,27,VALID,0.492578,
2011-01-15, 02:00:04,VALID,916.482,VALID,0,VALID,95.4833,VALID,0,VALID,20.3448,VALID,27,VALID,0.284766,
2011-01-15, 02:01:04,VALID,916.44,VALID,0,VALID,95.4985,VALID,0,VALID,20.3464,VALID,27,VALID,0.250781,
2011-01-15, 02:02:04,VALID,916.426,VALID,0,VALID,95.4985,VALID,0,VALID,20.3269,VALID,27,VALID,0.304688,
2011-01-15, 02:03:04,VALID,916.386,VALID,0,VALID,95.5062,VALID,0,VALID,20.3269,VALID,27,VALID,0.478516,
2011-01-15, 02:04:04,VALID,916.414,VALID,0,VALID,95.5367,VALID,0,VALID,20.3464,VALID,27,VALID,0.40625,
2011-01-15, 02:05:04,VALID,916.398,VALID,0,VALID,95.4452,VALID,0,VALID,20.3269,VALID,27,VALID,0.440625,
2011-01-15, 02:06:04,VALID,916.382,VALID,0,VALID,95.4223,VALID,0,VALID,20.3058,VALID,27,VALID,0.35,
2011-01-15, 02:07:04,VALID,916.396,VALID,0,VALID,95.3842,VALID,0,VALID,20.2668,VALID,27,VALID,0.604297,
2011-01-15, 02:08:04,VALID,916.382,VALID,0,VALID,95.3003,VALID,0,VALID,20.2278,VALID,27,VALID,0.386719,
2011-01-15, 02:09:04,VALID,916.378,VALID,0,VALID,95.4223,VALID,0,VALID,20.2278,VALID,27,VALID,0.490234,
2011-01-15, 02:10:04,VALID,916.363,VALID,0,VALID,95.4757,VALID,0,VALID,20.2293,VALID,27,VALID,0.507422,
2011-01-15, 02:11:04,VALID,916.336,VALID,0,VALID,95.2698,VALID,0,VALID,20.1708,VALID,27,VALID,0.555859,
2011-01-15, 02:12:04,VALID,916.312,VALID,0,VALID,95.5595,VALID,0,VALID,20.1903,VALID,27,VALID,0.553516,
2011-01-15, 02:13:04,VALID,916.305,VALID,0,VALID,95.6434,VALID,0,VALID,20.1888,VALID,27,VALID,0.50625,
2011-01-15, 02:14:04,VALID,916.27,VALID,0,VALID,95.7882,VALID,0,VALID,20.2098,VALID,27,VALID,0.698438,
2011-01-15, 02:15:04,VALID,916.277,VALID,0,VALID,95.9102,VALID,0,VALID,20.2489,VALID,27,VALID,0.308984,
2011-01-15, 02:16:04,VALID,916.311,VALID,0,VALID,95.9102,VALID,0,VALID,20.2489,VALID,27,VALID,0.408984,
2011-01-15, 02:17:04,VALID,916.296,VALID,0,VALID,95.9559,VALID,0,VALID,20.2489,VALID,27,VALID,0.26875,
2011-01-15, 02:18:04,VALID,916.296,VALID,0,VALID,95.9941,VALID,0,VALID,20.2684,VALID,27,VALID,0.230078,
2011-01-15, 02:19:04,VALID,916.305,VALID,0,VALID,95.9941,VALID,0,VALID,20.2684,VALID,27,VALID,0.216406,
2011-01-15, 02:20:04,VALID,916.288,VALID,0,VALID,96.0093,VALID,0,VALID,20.2684,VALID,27,VALID,0.276953,
2011-01-15, 02:21:04,VALID,916.275,VALID,0,VALID,96.0245,VALID,0,VALID,20.2684,VALID,27,VALID,0.372656,
2011-01-15, 02:22:04,VALID,916.276,VALID,0,VALID,96.055,VALID,0,VALID,20.2879,VALID,27,VALID,0.394141,
2011-01-15, 02:23:04,VALID,916.261,VALID,0,VALID,96.0779,VALID,0,VALID,20.3074,VALID,27,VALID,0.394531,
2011-01-15, 02:24:04,VALID,916.295,VALID,0,VALID,96.1008,VALID,0,VALID,20.3269,VALID,27,VALID,0.213281,
2011-01-15, 02:25:04,VALID,916.278,VALID,0,VALID,96.0322,VALID,0,VALID,20.3074,VALID,27,VALID,0.0929687,
2011-01-15, 02:26:04,VALID,916.245,VALID,0,VALID,95.9178,VALID,0,VALID,20.2863,VALID,27,VALID,0,
2011-01-15, 02:27:04,VALID,916.232,VALID,0,VALID,95.773,VALID,0,VALID,20.2489,VALID,27,VALID,0,
2011-01-15, 02:28:04,VALID,916.203,VALID,0,VALID,95.6205,VALID,0,VALID,20.1903,VALID,27,VALID,0,
2011-01-15, 02:29:04,VALID,916.193,VALID,0,VALID,95.6662,VALID,0,VALID,20.1903,VALID,27,VALID,0,
2011-01-15, 02:30:04,VALID,916.188,VALID,0,VALID,95.6815,VALID,0,VALID,20.1513,VALID,27,VALID,0,
2011-01-15, 02:31:04,VALID,916.175,VALID,0,VALID,95.8263,VALID,0.107441,VALID,20.1693,VALID,27,VALID,0,
2011-01-15, 02:32:04,VALID,916.194,VALID,0,VALID,95.8721,VALID,0,VALID,20.1708,VALID,27,VALID,0.0398437,
2011-01-15, 02:33:04,VALID,916.181,VALID,0,VALID,95.9331,VALID,0,VALID,20.1498,VALID,27,VALID,0.257813,
2011-01-15, 02:34:04,VALID,916.177,VALID,0,VALID,95.9331,VALID,0,VALID,20.1693,VALID,27,VALID,0.0253906,
2011-01-15, 02:35:04,VALID,916.182,VALID,0,VALID,95.9026,VALID,0,VALID,20.1498,VALID,27,VALID,0.227344,
2011-01-15, 02:36:04,VALID,916.15,VALID,0,VALID,95.8568,VALID,0.107441,VALID,20.0913,VALID,27,VALID,0.332031,
2011-01-15, 02:37:04,VALID,916.154,VALID,0,VALID,95.9331,VALID,0,VALID,20.0913,VALID,27,VALID,0.360547,
2011-01-15, 02:38:04,VALID,916.147,VALID,0,VALID,96.0017,VALID,0,VALID,20.0913,VALID,27,VALID,0.230469,
2011-01-15, 02:39:04,VALID,916.151,VALID,0,VALID,95.9864,VALID,0,VALID,20.0718,VALID,27,VALID,0.536328,
2011-01-15, 02:40:04,VALID,916.123,VALID,0,VALID,95.9864,VALID,0.107441,VALID,20.0523,VALID,27,VALID,0.35,
2011-01-15, 02:41:04,VALID,916.121,VALID,0,VALID,95.9407,VALID,0,VALID,20.0328,VALID,27,VALID,0.5125,
2011-01-15, 02:42:04,VALID,916.115,VALID,0,VALID,95.8568,VALID,0,VALID,20.0133,VALID,27,VALID,0.500781,
2011-01-15, 02:43:04,VALID,916.083,VALID,0,VALID,95.8263,VALID,0,VALID,19.9728,VALID,27,VALID,0.389453,
2011-01-15, 02:44:04,VALID,916.076,VALID,0,VALID,95.712,VALID,0.107441,VALID,19.9938,VALID,27,VALID,0.387891,
2011-01-15, 02:45:04,VALID,916.131,VALID,0,VALID,95.6357,VALID,0.107441,VALID,19.9743,VALID,27,VALID,0.169922,
2011-01-15, 02:46:04,VALID,916.098,VALID,0,VALID,95.5443,VALID,0,VALID,19.9563,VALID,27,VALID,0.321094,
2011-01-15, 02:47:04,VALID,916.095,VALID,0,VALID,95.4833,VALID,0,VALID,19.9563,VALID,27,VALID,0.347266,
2011-01-15, 02:48:04,VALID,916.075,VALID,0,VALID,95.529,VALID,0,VALID,19.9368,VALID,27,VALID,0.462109,
2011-01-15, 02:49:04,VALID,916.077,VALID,0,VALID,95.5595,VALID,0,VALID,19.9563,VALID,27,VALID,0.39375,
2011-01-15, 02:50:04,VALID,916.067,VALID,0,VALID,95.5976,VALID,0,VALID,19.9368,VALID,27,VALID,0.204297,
2011-01-15, 02:51:04,VALID,916.089,VALID,0,VALID,95.6205,VALID,0,VALID,19.9563,VALID,27,VALID,0,
2011-01-15, 02:52:04,VALID,916.088,VALID,0,VALID,95.5595,VALID,0,VALID,19.9578,VALID,27,VALID,0,
2011-01-15, 02:53:04,VALID,916.112,VALID,0,VALID,95.3918,VALID,0,VALID,19.9173,VALID,27,VALID,0,
2011-01-15, 02:54:04,VALID,916.115,VALID,0,VALID,95.2851,VALID,0,VALID,19.9188,VALID,27,VALID,0,
2011-01-15, 02:55:04,VALID,916.059,VALID,0,VALID,94.8505,VALID,0,VALID,19.8393,VALID,27,VALID,0.539063,
2011-01-15, 02:56:04,VALID,916.07,VALID,0,VALID,94.5304,VALID,0,VALID,19.8213,VALID,27,VALID,0.575,
2011-01-15, 02:57:04,VALID,916.067,VALID,0,VALID,94.4541,VALID,0,VALID,19.7808,VALID,27,VALID,0.483984,
2011-01-15, 02:58:04,VALID,916.037,VALID,0,VALID,94.3931,VALID,0,VALID,19.7418,VALID,27,VALID,0.521094,
2011-01-15, 02:59:04,VALID,916.011,VALID,0,VALID,94.4617,VALID,0,VALID,19.7223,VALID,27,VALID,0.385547,
2011-01-15, 03:00:04,VALID,915.98,VALID,0,VALID,94.4465,VALID,0,VALID,19.6833,VALID,27,VALID,0.323828,
2011-01-15, 03:01:04,VALID,916.027,VALID,0,VALID,94.3245,VALID,0.107441,VALID,19.6233,VALID,27,VALID,0.325781,
2011-01-15, 03:02:04,VALID,916.033,VALID,0,VALID,94.355,VALID,0.107441,VALID,19.6038,VALID,27,VALID,0.00273437,
2011-01-15, 03:03:04,VALID,916.039,VALID,0,VALID,94.5913,VALID,0.107441,VALID,19.6038,VALID,27,VALID,0.0664063,
2011-01-15, 03:04:04,VALID,916.021,VALID,0,VALID,93.9205,VALID,0.107441,VALID,19.4868,VALID,27,VALID,0,
2011-01-15, 03:05:04,VALID,916.053,VALID,0,VALID,94.0425,VALID,0,VALID,19.4688,VALID,27,VALID,0,
2011-01-15, 03:06:04,VALID,916.024,VALID,0,VALID,94.7819,VALID,0,VALID,19.4868,VALID,27,VALID,0.295312,
2011-01-15, 03:07:04,VALID,916.037,VALID,0,VALID,95.3613,VALID,0,VALID,19.5453,VALID,27,VALID,0.670313,
2011-01-15, 03:08:04,VALID,916.017,VALID,0,VALID,95.59,VALID,0,VALID,19.5453,VALID,27,VALID,0.616406,
2011-01-15, 03:09:04,VALID,916.022,VALID,0,VALID,95.773,VALID,0,VALID,19.5648,VALID,27,VALID,0.763281,
2011-01-15, 03:10:04,VALID,916.001,VALID,0,VALID,95.8873,VALID,0,VALID,19.5843,VALID,27,VALID,0.728516,
2011-01-15, 03:11:04,VALID,916.016,VALID,0,VALID,95.9636,VALID,0,VALID,19.6053,VALID,27,VALID,0.694531,
2011-01-15, 03:12:04,VALID,915.988,VALID,0,VALID,96.0855,VALID,0.107441,VALID,19.6038,VALID,27,VALID,0.748438,
2011-01-15, 03:13:04,VALID,916.001,VALID,0,VALID,96.2228,VALID,0,VALID,19.6428,VALID,27,VALID,0.656641,
2011-01-15, 03:14:04,VALID,915.986,VALID,0,VALID,96.2837,VALID,0,VALID,19.6623,VALID,27,VALID,0.640625,
2011-01-15, 03:15:04,VALID,915.986,VALID,0,VALID,96.3295,VALID,0,VALID,19.6623,VALID,27,VALID,0.700781,
2011-01-15, 03:16:04,VALID,915.999,VALID,0,VALID,96.36,VALID,0,VALID,19.6623,VALID,27,VALID,0.798047,
2011-01-15, 03:17:04,VALID,915.961,VALID,0,VALID,96.421,VALID,0,VALID,19.6818,VALID,27,VALID,0.834375,
2011-01-15, 03:18:04,VALID,915.964,VALID,0,VALID,96.3981,VALID,0,VALID,19.6833,VALID,27,VALID,0.944141,
2011-01-15, 03:19:04,VALID,915.935,VALID,0,VALID,96.4286,VALID,0,VALID,19.6638,VALID,27,VALID,0.983203,
2011-01-15, 03:20:04,VALID,915.956,VALID,0,VALID,96.3829,VALID,0.107441,VALID,19.5843,VALID,27,VALID,0.818359,
2011-01-15, 03:21:04,VALID,915.951,VALID,0,VALID,96.3676,VALID,0,VALID,19.5258,VALID,27,VALID,0.967969,
2011-01-15, 03:22:04,VALID,915.951,VALID,0,VALID,96.4057,VALID,0,VALID,19.5273,VALID,27,VALID,1.06641,
2011-01-15, 03:23:04,VALID,915.891,VALID,0,VALID,96.4515,VALID,0,VALID,19.4688,VALID,27,VALID,1.07969,
2011-01-15, 03:24:04,VALID,915.908,VALID,0,VALID,96.5048,VALID,0,VALID,19.4478,VALID,27,VALID,0.997266,
2011-01-15, 03:25:04,VALID,915.903,VALID,0,VALID,96.4896,VALID,0,VALID,19.4103,VALID,27,VALID,0.831641,
2011-01-15, 03:26:04,VALID,915.913,VALID,0,VALID,96.4591,VALID,0,VALID,19.3518,VALID,27,VALID,0.751562,
2011-01-15, 03:27:04,VALID,915.907,VALID,0,VALID,96.5506,VALID,0,VALID,19.3113,VALID,27,VALID,0.646484,
2011-01-15, 03:28:04,VALID,915.869,VALID,0,VALID,96.4819,VALID,0,VALID,19.2543,VALID,27,VALID,0.382813,
2011-01-15, 03:29:04,VALID,915.879,VALID,0,VALID,96.4362,VALID,0,VALID,19.1568,VALID,27,VALID,0.414453,
2011-01-15, 03:30:04,VALID,915.897,VALID,0,VALID,96.5201,VALID,0,VALID,19.1568,VALID,27,VALID,0.45625,
2011-01-15, 03:31:04,VALID,915.883,VALID,0,VALID,96.5201,VALID,0,VALID,19.1178,VALID,27,VALID,0.384375,
2011-01-15, 03:32:04,VALID,915.886,VALID,0,VALID,96.5429,VALID,0,VALID,19.0788,VALID,27,VALID,0.6625,
2011-01-15, 03:33:04,VALID,915.896,VALID,0,VALID,96.6115,VALID,0,VALID,19.0579,VALID,27,VALID,0.594141,
2011-01-15, 03:34:04,VALID,915.918,VALID,0,VALID,96.642,VALID,0,VALID,19.0579,VALID,27,VALID,0.699609,
2011-01-15, 03:35:04,VALID,915.899,VALID,0,VALID,96.6954,VALID,0,VALID,19.0579,VALID,27,VALID,0.626562,
2011-01-15, 03:36:05,VALID,915.921,VALID,0,VALID,96.6878,VALID,0,VALID,19.0398,VALID,27,VALID,0.457031,
2011-01-15, 03:37:05,VALID,915.914,VALID,0,VALID,96.764,VALID,0,VALID,19.0384,VALID,27,VALID,0.448828,
2011-01-15, 03:38:05,VALID,915.88,VALID,0,VALID,96.8098,VALID,0,VALID,19.0983,VALID,27,VALID,0.633203,
2011-01-15, 03:39:05,VALID,915.867,VALID,0,VALID,96.9165,VALID,0,VALID,19.1749,VALID,27,VALID,0.890234,
2011-01-15, 03:40:05,VALID,915.875,VALID,0,VALID,96.9165,VALID,0,VALID,19.1958,VALID,27,VALID,0.866016,
2011-01-15, 03:41:05,VALID,915.825,VALID,0,VALID,96.8631,VALID,0,VALID,19.1568,VALID,27,VALID,0.889453,
2011-01-15, 03:42:05,VALID,915.849,VALID,0,VALID,96.7488,VALID,0.107441,VALID,19.0983,VALID,27,VALID,0.714063,
2011-01-15, 03:43:05,VALID,915.841,VALID,0,VALID,96.703,VALID,0,VALID,19.0203,VALID,27,VALID,0.612109,
2011-01-15, 03:44:05,VALID,915.805,VALID,0,VALID,96.6725,VALID,0,VALID,18.9229,VALID,27,VALID,0.659375,
2011-01-15, 03:45:05,VALID,915.805,VALID,0,VALID,96.7411,VALID,0,VALID,18.8839,VALID,27,VALID,0.670313,
2011-01-15, 03:46:05,VALID,915.768,VALID,0,VALID,96.8784,VALID,0,VALID,18.9424,VALID,27,VALID,0.695313,